Regional Weather Roundup
Issued by NWS

Home | Current Version | Previous Version | Graphics & Text | Print | Product List | Glossary On
Versions: 1 2 3 4 5 6 7 8 9 10 11 12 13 14 15 16 17 18 19 20 21 22 23 24 25 26 27 28 29 30 31 32 33 34 35 36 37 38 39 40 41 42 43 44 45 46 47 48 49 50
000
ASUS43 KOAX 071702
RWRNE

WEATHER ROUNDUP FOR NEBRASKA
NATIONAL WEATHER SERVICE OMAHA NE
1200 PM CDT TUE JUL 07 2015

NOTES: SATELLITE DATA IS BEING USED TO AUGMENT CLOUD COVER ABOVE
       12000 FEET.
       "FAIR" INDICATES FEW OR NO CLOUDS BELOW 12,000 FEET WITH NO
       SIGNIFICANT WEATHER AND/OR OBSTRUCTIONS TO VISIBILITY.

  * THESE STATIONS DO NOT REPORT WEATHER SUCH AS RAIN...SNOW OR FOG.

NEZ001>004-019>022-054>056-071800-
NEBRASKA PANHANDLE

CITY           SKY/WX    TMP DP  RH WIND       PRES   REMARKS
SCOTTSBLUFF    CLOUDY    65  54  67 SE12      30.18F HAZE
ALLIANCE       CLOUDY    64  54  69 S16       30.20F
CHADRON        PTSUNNY   70  55  59 S18G24    30.14F
KIMBALL          N/A    N/A N/A N/A MISG        N/A
SIDNEY         CLOUDY    69  51  52 S17G23    30.22F
$$

NEZ057>060-069>072-079>082-071800-
SOUTHWEST NEBRASKA

CITY           SKY/WX    TMP DP  RH WIND       PRES   REMARKS
NORTH PLATTE   MOSUNNY   71  51  49 E10       30.20F
IMPERIAL       SUNNY     71  48  43 SE10      30.20F
LEXINGTON      SUNNY     70  54  56 E7        30.20F
MCCOOK         SUNNY     71  52  50 VRB5      30.20F HAZE
$$

NEZ005>010-023>029-035>040-094-071800-
NORTH CENTRAL NEBRASKA

CITY           SKY/WX    TMP DP  RH WIND       PRES   REMARKS
VALENTINE      CLOUDY    71  54  54 SE8       30.18F
AINSWORTH      SUNNY     69  56  63 SE6       30.20F
BROKEN BOW     MOSUNNY   69  56  62 VRB6      30.20F HAZE
ORD            PTSUNNY   68  53  58 NE6       30.19F
$$

NEZ041-046>049-061>064-073>077-083>087-071800-
SOUTH CENTRAL NEBRASKA

CITY           SKY/WX    TMP DP  RH WIND       PRES   REMARKS
GRAND ISLAND   SUNNY     66  54  65 NE9G18    30.20F
AURORA         SUNNY     66  53  63 NE13      30.19S
HASTINGS       SUNNY     67  53  61 NE10      30.19S
KEARNEY *      MOSUNNY   66  54  63 NE9       30.20F
$$

NEZ011>018-030>034-042>045-071800-
NORTHEAST NEBRASKA

CITY           SKY/WX    TMP DP  RH WIND       PRES   REMARKS
NORFOLK        SUNNY     68  50  52 N14G20    30.20S
FREMONT        SUNNY     67  47  49 N12G18    30.17S
TEKAMAH        SUNNY     69  48  47 N16       30.16F
$$

NEZ050>053-065>068-078-088>093-071800-
SOUTHEAST NEBRASKA

CITY           SKY/WX    TMP DP  RH WIND       PRES   REMARKS
LINCOLN        SUNNY     69  50  50 N15G23    30.17S
OMAHA EPPLEY   MOSUNNY   68  50  52 N13       30.15S
FALLS CITY     MOSUNNY   69  52  54 N15       30.12R
PLATTSMOUTH    SUNNY     66  47  49 NE13      30.15S
$$

NEZ044-045-051>053-067-071800-
OMAHA AREA

CITY           SKY/WX    TMP DP  RH WIND       PRES   REMARKS
OMAHA EPPLEY   MOSUNNY   68  50  52 N13       30.15S
FREMONT        SUNNY     67  47  49 N12G18    30.17S
MILLARD        SUNNY     67  50  54 MISG      30.15S
OFFUTT AFB     SUNNY     67  50  54 N9        30.14S
PLATTSMOUTH    SUNNY     66  47  49 NE13      30.15S
$$


USA.gov is the U.S. government's official web portal to all federal, state and local government web resources and services.